"Period start","avg(HW err(1)/warn(2) (#))","avg(Visibility (m))","avg(Weather code (#))","avg(Precip intensity (mm/h))","min(HW err(1)/warn(2) (#))","max(HW err(1)/warn(2) (#))","std(HW err(1)/warn(2) (#))","med(HW err(1)/warn(2) (#))","min(Visibility (m))","max(Visibility (m))","std(Visibility (m))","med(Visibility (m))","min(Weather code (#))","max(Weather code (#))","std(Weather code (#))","med(Weather code (#))","min(Precip intensity (mm/h))","max(Precip intensity (mm/h))","std(Precip intensity (mm/h))","med(Precip intensity (mm/h))"
2013-07-30 00:00:00,2,12868,10,0.00,2,2,0,2,5955,21299,5168,12332,10,10,0,10,0.00,0.00,0.00,0.00
2013-07-30 00:10:00,2,23559,2,0.00,2,2,0,2,12758,36388,9335,20314,0,10,4,0,0.00,0.00,0.00,0.00
2013-07-30 00:20:00,2,30563,0,0.00,2,2,0,2,15937,39974,6400,30225,0,0,0,0,0.00,0.00,0.00,0.00
2013-07-30 00:30:00,2,18809,0,0.00,2,2,0,2,7867,36738,9657,18175,0,0,0,0,0.00,0.00,0.00,0.00
2013-07-30 00:40:00,2,19031,0,0.00,2,2,0,2,11336,26268,4613,17631,0,0,0,0,0.00,0.00,0.00,0.00
2013-07-30 00:50:00,2,13990,0,0.00,2,2,0,2,8641,20368,3932,13870,0,0,0,0,0.00,0.00,0.00,0.00
2013-07-30 01:00:00,2,22501,0,0.00,2,2,0,2,11361,39127,8364,20151,0,0,0,0,0.00,0.00,0.00,0.00
2013-07-30 01:10:00,2,33263,0,0.00,2,2,0,2,23627,45104,7952,30840,0,0,0,0,0.00,0.00,0.00,0.00
2013-07-30 01:20:00,2,36442,0,0.00,2,2,0,2,26079,48273,7331,35208,0,0,0,0,0.00,0.00,0.00,0.00
2013-07-30 01:30:00,2,44685,0,0.00,2,2,0,2,34005,50000,5672,47091,0,0,0,0,0.00,0.00,0.00,0.00
2013-07-30 01:40:00,2,45326,0,0.00,2,2,0,2,37012,50000,4587,45928,0,0,0,0,0.00,0.00,0.00,0.00
2013-07-30 01:50:00,2,47158,0,0.00,2,2,0,2,42440,50000,2612,47708,0,0,0,0,0.00,0.00,0.00,0.00
2013-07-30 02:00:00,2,44229,0,0.00,2,2,0,2,36563,50000,3885,43804,0,0,0,0,0.00,0.00,0.00,0.00
2013-07-30 02:10:00,2,43069,0,0.00,2,2,0,2,33178,50000,5387,43132,0,0,0,0,0.00,0.00,0.00,0.00
2013-07-30 02:20:00,2,45989,0,0.00,2,2,0,2,35088,50000,4933,47707,0,0,0,0,0.00,0.00,0.00,0.00
2013-07-30 02:30:00,2,48435,0,0.00,2,2,0,2,43614,50000,2043,49150,0,0,0,0,0.00,0.00,0.00,0.00
2013-07-30 02:40:00,2,49308,0,0.00,2,2,0,2,46423,50000,1094,50000,0,0,0,0,0.00,0.00,0.00,0.00
2013-07-30 02:50:00,2,45106,0,0.00,2,2,0,2,38361,50000,4311,45610,0,0,0,0,0.00,0.00,0.00,0.00
2013-07-30 03:00:00,2,49573,0,0.00,2,2,0,2,47855,50000,854,50000,0,0,0,0,0.00,0.00,0.00,0.00
2013-07-30 03:10:00,2,47949,0,0.00,2,2,0,2,43879,50000,2166,48474,0,0,0,0,0.00,0.00,0.00,0.00
2013-07-30 03:20:00,2,42705,0,0.00,2,2,0,2,30577,50000,6890,45915,0,0,0,0,0.00,0.00,0.00,0.00
2013-07-30 03:30:00,2,43889,0,0.00,2,2,0,2,34290,50000,5324,45401,0,0,0,0,0.00,0.00,0.00,0.00
2013-07-30 03:40:00,2,45676,0,0.00,2,2,0,2,40290,50000,3956,45862,0,0,0,0,0.00,0.00,0.00,0.00
2013-07-30 03:50:00,2,47939,0,0.00,2,2,0,2,40668,50000,3024,50000,0,0,0,0,0.00,0.00,0.00,0.00
2013-07-30 04:00:00,2,48425,0,0.00,2,2,0,2,42391,50000,2893,50000,0,0,0,0,0.00,0.00,0.00,0.00
2013-07-30 04:10:00,2,47579,0,0.00,2,2,0,2,44222,50000,2206,47486,0,0,0,0,0.00,0.00,0.00,0.00
2013-07-30 04:20:00,2,47562,0,0.00,2,2,0,2,37568,50000,3865,50000,0,0,0,0,0.00,0.00,0.00,0.00
2013-07-30 04:30:00,2,45040,0,0.00,2,2,0,2,37961,50000,3901,45098,0,0,0,0,0.00,0.00,0.00,0.00
2013-07-30 04:40:00,2,48410,0,0.00,2,2,0,2,40778,50000,2867,50000,0,0,0,0,0.00,0.00,0.00,0.00
2013-07-30 04:50:00,2,47758,0,0.00,2,2,0,2,41687,50000,3439,50000,0,0,0,0,0.00,0.00,0.00,0.00
2013-07-30 05:00:00,2,48647,0,0.00,2,2,0,2,44422,50000,1928,49656,0,0,0,0,0.00,0.00,0.00,0.00
2013-07-30 05:10:00,2,49803,0,0.00,2,2,0,2,48033,50000,590,50000,0,0,0,0,0.00,0.00,0.00,0.00
2013-07-30 05:20:00,2,49349,0,0.00,2,2,0,2,47803,50000,995,50000,0,0,0,0,0.00,0.00,0.00,0.00
2013-07-30 05:30:00,2,47652,0,0.00,2,2,0,2,40708,50000,3336,49130,0,0,0,0,0.00,0.00,0.00,0.00
2013-07-30 05:40:00,2,48724,0,0.00,2,2,0,2,39991,50000,3010,50000,0,0,0,0,0.00,0.00,0.00,0.00
2013-07-30 05:50:00,2,43962,0,0.00,2,2,0,2,35148,50000,5064,46057,0,0,0,0,0.00,0.00,0.00,0.00
2013-07-30 06:00:00,2,48986,0,0.00,2,2,0,2,44977,50000,1682,50000,0,0,0,0,0.00,0.00,0.00,0.00
2013-07-30 06:10:00,2,49582,0,0.00,2,2,0,2,47912,50000,621,49870,0,0,0,0,0.00,0.00,0.00,0.00
2013-07-30 06:20:00,2,45918,0,0.00,2,2,0,2,38095,50000,4771,48752,0,0,0,0,0.00,0.00,0.00,0.00
2013-07-30 06:30:00,2,49348,0,0.00,2,2,0,2,45373,50000,1379,50000,0,0,0,0,0.00,0.00,0.00,0.00
2013-07-30 06:40:00,2,48378,0,0.00,2,2,0,2,41781,50000,2578,50000,0,0,0,0,0.00,0.00,0.00,0.00
2013-07-30 06:50:00,2,49280,0,0.00,2,2,0,2,46707,50000,1118,50000,0,0,0,0,0.00,0.00,0.00,0.00
2013-07-30 07:00:00,2,48258,0,0.00,2,2,0,2,42445,50000,2694,49774,0,0,0,0,0.00,0.00,0.00,0.00
2013-07-30 07:10:00,2,48760,0,0.00,2,2,0,2,42003,50000,2570,50000,0,0,0,0,0.00,0.00,0.00,0.00
2013-07-30 07:20:00,2,39657,0,0.00,2,2,0,2,11812,50000,12792,44872,0,0,0,0,0.00,0.00,0.00,0.00
2013-07-30 07:30:00,2,49608,0,0.00,2,2,0,2,47219,50000,849,50000,0,0,0,0,0.00,0.00,0.00,0.00
2013-07-30 07:40:00,2,46834,0,0.00,2,2,0,2,37087,50000,4549,49201,0,0,0,0,0.00,0.00,0.00,0.00
2013-07-30 07:50:00,2,49069,0,0.00,2,2,0,2,44482,50000,1633,50000,0,0,0,0,0.00,0.00,0.00,0.00
2013-07-30 08:00:00,2,47980,0,0.00,2,2,0,2,39467,50000,3382,50000,0,0,0,0,0.00,0.00,0.00,0.00
2013-07-30 08:10:00,2,49550,0,0.00,2,2,0,2,47551,50000,829,50000,0,0,0,0,0.00,0.00,0.00,0.00
2013-07-30 08:20:00,2,50000,0,0.00,2,2,0,2,50000,50000,0,50000,0,0,0,0,0.00,0.00,0.00,0.00
2013-07-30 08:30:00,2,49830,0,0.00,2,2,0,2,48668,50000,403,50000,0,0,0,0,0.00,0.00,0.00,0.00
2013-07-30 08:40:00,2,50000,0,0.00,2,2,0,2,50000,50000,0,50000,0,0,0,0,0.00,0.00,0.00,0.00
2013-07-30 08:50:00,2,50000,0,0.00,2,2,0,2,50000,50000,0,50000,0,0,0,0,0.00,0.00,0.00,0.00
2013-07-30 09:00:00,2,49980,0,0.00,2,2,0,2,49796,50000,61,50000,0,0,0,0,0.00,0.00,0.00,0.00
2013-07-30 09:10:00,2,49822,0,0.00,2,2,0,2,48295,50000,509,50000,0,0,0,0,0.00,0.00,0.00,0.00
2013-07-30 09:20:00,2,50000,0,0.00,2,2,0,2,50000,50000,0,50000,0,0,0,0,0.00,0.00,0.00,0.00
2013-07-30 09:30:00,2,41994,0,0.00,2,2,0,2,7402,50000,15488,50000,0,0,0,0,0.00,0.00,0.00,0.00
2013-07-30 09:40:00,2,47426,0,0.00,2,2,0,2,29393,50000,6203,50000,0,0,0,0,0.00,0.00,0.00,0.00
2013-07-30 09:50:00,2,50000,0,0.00,2,2,0,2,50000,50000,0,50000,0,0,0,0,0.00,0.00,0.00,0.00
2013-07-30 10:00:00,2,50000,0,0.00,2,2,0,2,50000,50000,0,50000,0,0,0,0,0.00,0.00,0.00,0.00
2013-07-30 10:10:00,2,50000,0,0.00,2,2,0,2,50000,50000,0,50000,0,0,0,0,0.00,0.00,0.00,0.00
2013-07-30 10:20:00,2,49903,0,0.00,2,2,0,2,49032,50000,290,50000,0,0,0,0,0.00,0.00,0.00,0.00
2013-07-30 10:30:00,2,50000,0,0.00,2,2,0,2,50000,50000,0,50000,0,0,0,0,0.00,0.00,0.00,0.00
2013-07-30 10:40:00,2,49873,0,0.00,2,2,0,2,48734,50000,380,50000,0,0,0,0,0.00,0.00,0.00,0.00
2013-07-30 10:50:00,2,50000,0,0.00,2,2,0,2,50000,50000,0,50000,0,0,0,0,0.00,0.00,0.00,0.00
2013-07-30 11:00:00,2,50000,0,0.00,2,2,0,2,50000,50000,0,50000,0,0,0,0,0.00,0.00,0.00,0.00
2013-07-30 11:10:00,2,49866,0,0.00,2,2,0,2,48655,50000,404,50000,0,0,0,0,0.00,0.00,0.00,0.00
2013-07-30 11:20:00,2,33133,16,4.51,2,2,0,2,6713,50000,20338,49156,0,40,20,0,0.00,33.70,9.99,0.00
2013-07-30 11:30:00,2,24590,62,14.69,2,2,0,2,9102,50000,12286,19852,61,62,0,62,2.00,26.50,8.98,15.62
2013-07-30 11:40:00,2,15764,62,12.16,2,2,0,2,8813,19964,3628,17081,61,62,0,62,4.30,29.75,8.31,9.78
2013-07-30 11:50:00,2,29852,58,0.74,2,2,0,2,22783,37820,4870,30152,51,61,5,61,0.05,1.95,0.68,0.50
2013-07-30 12:00:00,2,30131,35,5.23,2,2,0,2,4536,48167,17553,39600,0,68,29,51,0.00,25.50,8.51,0.00
2013-07-30 12:10:00,2,14275,64,12.04,2,2,0,2,3492,20893,4822,16101,61,68,3,62,5.35,26.00,6.51,11.10
2013-07-30 12:20:00,2,11953,61,9.47,2,2,0,2,4864,17487,3468,11808,61,62,0,61,4.90,15.90,3.25,8.52
2013-07-30 12:30:00,2,18348,61,7.68,2,2,0,2,13904,23430,2906,18880,61,62,0,61,2.90,12.20,2.62,7.95
2013-07-30 12:40:00,2,13528,62,13.73,2,2,0,2,10287,21290,3175,12550,61,62,0,62,6.70,23.35,4.72,13.12
2013-07-30 12:50:00,2,13120,62,12.17,2,2,0,2,8684,19010,3114,12527,61,62,0,62,5.30,23.05,4.89,11.07
2013-07-30 13:00:00,2,23904,60,1.91,2,2,0,2,19986,30020,3015,24266,52,61,3,61,0.65,5.55,1.35,1.40
2013-07-30 13:10:00,2,21208,52,1.36,2,2,0,2,15765,28759,4039,20498,52,52,0,52,0.40,3.30,0.85,1.38
2013-07-30 13:20:00,2,20305,51,0.40,2,2,0,2,17429,22804,1756,20078,51,52,0,51,0.20,0.55,0.09,0.45
2013-07-30 13:30:00,2,20650,52,0.87,2,2,0,2,16178,29792,4330,19868,51,52,0,52,0.55,1.60,0.32,0.78
2013-07-30 13:40:00,2,24447,60,1.99,2,2,0,2,18001,32427,4355,24596,52,61,3,61,0.35,4.40,1.05,2.03
2013-07-30 13:50:00,2,17448,61,4.79,2,2,0,2,12143,22756,2826,17886,61,61,0,61,2.75,7.80,1.74,4.45
2013-07-30 14:00:00,2,19252,60,2.17,2,2,0,2,11841,23275,2984,19858,52,61,3,61,1.00,5.55,1.35,1.83
2013-07-30 14:10:00,2,18290,52,0.45,2,2,0,2,15880,21581,1707,18581,51,52,0,52,0.15,1.00,0.24,0.38
2013-07-30 14:20:00,2,25192,36,0.04,2,2,0,2,19741,32536,3545,25400,0,51,23,51,0.00,0.15,0.05,0.05
2013-07-30 14:30:00,2,41917,0,0.00,2,2,0,2,32493,50000,6915,43784,0,0,0,0,0.00,0.00,0.00,0.00
2013-07-30 14:40:00,2,49783,0,0.00,2,2,0,2,48985,50000,354,50000,0,0,0,0,0.00,0.00,0.00,0.00
2013-07-30 14:50:00,2,49692,0,0.00,2,2,0,2,47721,50000,699,50000,0,0,0,0,0.00,0.00,0.00,0.00
2013-07-30 15:00:00,2,49920,0,0.00,2,2,0,2,49196,50000,241,50000,0,0,0,0,0.00,0.00,0.00,0.00
2013-07-30 15:10:00,2,50000,0,0.00,2,2,0,2,50000,50000,0,50000,0,0,0,0,0.00,0.00,0.00,0.00
2013-07-30 15:20:00,2,50000,0,0.00,2,2,0,2,50000,50000,0,50000,0,0,0,0,0.00,0.00,0.00,0.00
2013-07-30 15:30:00,2,49967,0,0.00,2,2,0,2,49673,50000,98,50000,0,0,0,0,0.00,0.00,0.00,0.00
2013-07-30 15:40:00,2,50000,0,0.00,2,2,0,2,50000,50000,0,50000,0,0,0,0,0.00,0.00,0.00,0.00
2013-07-30 15:50:00,2,50000,0,0.00,2,2,0,2,50000,50000,0,50000,0,0,0,0,0.00,0.00,0.00,0.00
2013-07-30 16:00:00,2,50000,0,0.00,2,2,0,2,50000,50000,0,50000,0,0,0,0,0.00,0.00,0.00,0.00
2013-07-30 16:10:00,2,50000,0,0.00,2,2,0,2,50000,50000,0,50000,0,0,0,0,0.00,0.00,0.00,0.00
2013-07-30 16:20:00,2,50000,0,0.00,2,2,0,2,50000,50000,0,50000,0,0,0,0,0.00,0.00,0.00,0.00
2013-07-30 16:30:00,2,50000,0,0.00,2,2,0,2,50000,50000,0,50000,0,0,0,0,0.00,0.00,0.00,0.00
2013-07-30 16:40:00,2,50000,0,0.00,2,2,0,2,50000,50000,0,50000,0,0,0,0,0.00,0.00,0.00,0.00
2013-07-30 16:50:00,2,49852,0,0.00,2,2,0,2,48517,50000,445,50000,0,0,0,0,0.00,0.00,0.00,0.00
2013-07-30 17:00:00,2,40730,0,0.00,2,2,0,2,25164,49523,9268,45921,0,0,0,0,0.00,0.00,0.00,0.00
2013-07-30 17:10:00,2,20681,0,0.00,2,2,0,2,16898,24345,2283,20760,0,0,0,0,0.00,0.00,0.00,0.00
2013-07-30 17:20:00,2,17521,0,0.00,2,2,0,2,11428,22806,3422,17464,0,0,0,0,0.00,0.00,0.00,0.00
2013-07-30 17:30:00,2,14982,0,0.00,2,2,0,2,11466,17658,1910,15300,0,0,0,0,0.00,0.00,0.00,0.00
2013-07-30 17:40:00,2,13696,17,0.17,2,2,0,2,8878,20831,3908,12696,0,51,21,0,0.00,0.55,0.22,0.00
2013-07-30 17:50:00,2,6373,47,0.12,2,2,0,2,4338,7817,1100,6388,41,51,5,51,0.05,0.15,0.04,0.15
2013-07-30 18:00:00,2,3766,57,0.43,2,2,0,2,2960,5352,689,3606,41,61,8,61,0.15,0.95,0.26,0.30
2013-07-30 18:10:00,2,3438,22,0.05,2,2,0,2,2854,4230,382,3378,10,41,15,10,0.00,0.20,0.07,0.00
2013-07-30 18:20:00,2,2884,37,0.29,2,2,0,2,2200,3512,381,2964,10,61,18,41,0.00,0.70,0.26,0.25
2013-07-30 18:30:00,2,2354,61,0.82,2,2,0,2,1876,2764,271,2420,61,61,0,61,0.45,1.45,0.28,0.78
2013-07-30 18:40:00,2,4410,59,0.32,2,2,0,2,1874,8303,2028,3963,52,61,4,61,0.00,1.80,0.53,0.10
2013-07-30 18:50:00,2,22888,0,0.00,2,2,0,2,9821,39741,8242,23622,0,0,0,0,0.00,0.00,0.00,0.00
2013-07-30 19:00:00,2,48497,0,0.00,2,2,0,2,36869,50000,3917,50000,0,0,0,0,0.00,0.00,0.00,0.00
2013-07-30 19:10:00,2,50000,0,0.00,2,2,0,2,50000,50000,0,50000,0,0,0,0,0.00,0.00,0.00,0.00
2013-07-30 19:20:00,2,50000,0,0.00,2,2,0,2,50000,50000,0,50000,0,0,0,0,0.00,0.00,0.00,0.00
2013-07-30 19:30:00,2,50000,0,0.00,2,2,0,2,50000,50000,0,50000,0,0,0,0,0.00,0.00,0.00,0.00
2013-07-30 19:40:00,2,50000,0,0.00,2,2,0,2,50000,50000,0,50000,0,0,0,0,0.00,0.00,0.00,0.00
2013-07-30 19:50:00,2,50000,0,0.00,2,2,0,2,50000,50000,0,50000,0,0,0,0,0.00,0.00,0.00,0.00
2013-07-30 20:00:00,2,50000,0,0.00,2,2,0,2,50000,50000,0,50000,0,0,0,0,0.00,0.00,0.00,0.00
2013-07-30 20:10:00,2,50000,0,0.00,2,2,0,2,50000,50000,0,50000,0,0,0,0,0.00,0.00,0.00,0.00
2013-07-30 20:20:00,2,50000,0,0.00,2,2,0,2,50000,50000,0,50000,0,0,0,0,0.00,0.00,0.00,0.00
2013-07-30 20:30:00,2,50000,0,0.00,2,2,0,2,50000,50000,0,50000,0,0,0,0,0.00,0.00,0.00,0.00
2013-07-30 20:40:00,2,50000,0,0.00,2,2,0,2,50000,50000,0,50000,0,0,0,0,0.00,0.00,0.00,0.00
2013-07-30 20:50:00,2,50000,0,0.00,2,2,0,2,50000,50000,0,50000,0,0,0,0,0.00,0.00,0.00,0.00
2013-07-30 21:00:00,2,50000,0,0.00,2,2,0,2,50000,50000,0,50000,0,0,0,0,0.00,0.00,0.00,0.00
2013-07-30 21:10:00,2,50000,0,0.00,2,2,0,2,50000,50000,0,50000,0,0,0,0,0.00,0.00,0.00,0.00
2013-07-30 21:20:00,2,50000,0,0.00,2,2,0,2,50000,50000,0,50000,0,0,0,0,0.00,0.00,0.00,0.00
2013-07-30 21:30:00,2,50000,0,0.00,2,2,0,2,50000,50000,0,50000,0,0,0,0,0.00,0.00,0.00,0.00
2013-07-30 21:40:00,2,49991,0,0.00,2,2,0,2,49906,50000,28,50000,0,0,0,0,0.00,0.00,0.00,0.00
2013-07-30 21:50:00,2,49961,0,0.00,2,2,0,2,49613,50000,116,50000,0,0,0,0,0.00,0.00,0.00,0.00
2013-07-30 22:00:00,2,49991,0,0.00,2,2,0,2,49912,50000,26,50000,0,0,0,0,0.00,0.00,0.00,0.00
2013-07-30 22:10:00,2,49534,0,0.00,2,2,0,2,45846,50000,1239,50000,0,0,0,0,0.00,0.00,0.00,0.00
2013-07-30 22:20:00,2,50000,0,0.00,2,2,0,2,50000,50000,0,50000,0,0,0,0,0.00,0.00,0.00,0.00
2013-07-30 22:30:00,2,49917,0,0.00,2,2,0,2,49172,50000,248,50000,0,0,0,0,0.00,0.00,0.00,0.00
2013-07-30 22:40:00,2,49773,0,0.00,2,2,0,2,48578,50000,472,50000,0,0,0,0,0.00,0.00,0.00,0.00
2013-07-30 22:50:00,2,49599,0,0.00,2,2,0,2,48243,50000,602,50000,0,0,0,0,0.00,0.00,0.00,0.00
2013-07-30 23:00:00,2,50000,0,0.00,2,2,0,2,50000,50000,0,50000,0,0,0,0,0.00,0.00,0.00,0.00
2013-07-30 23:10:00,2,50000,0,0.00,2,2,0,2,50000,50000,0,50000,0,0,0,0,0.00,0.00,0.00,0.00
2013-07-30 23:20:00,2,48223,0,0.00,2,2,0,2,39644,50000,3444,50000,0,0,0,0,0.00,0.00,0.00,0.00
2013-07-30 23:30:00,2,49220,0,0.00,2,2,0,2,45042,50000,1631,50000,0,0,0,0,0.00,0.00,0.00,0.00
2013-07-30 23:40:00,2,49680,0,0.00,2,2,0,2,46801,50000,960,50000,0,0,0,0,0.00,0.00,0.00,0.00
2013-07-30 23:50:00,2,49999,0,0.00,2,2,0,2,49991,50000,3,50000,0,0,0,0,0.00,0.00,0.00,0.00
